QPF
0.00 0.01 0.01 0.01 0.01 0.01 0.01 0.02 0.03 0.03 0.03 0.04 0.05 0.05 0.04 0.05 0.06 0.06 0.05 0.05 0.05 0.05 0.05 0.05 0.06 0.07 0.09 0.08 0.08 0.08 0.08 0.10 0.10 0.07 0.06 0.05 0.06 0.07 0.06 0.07 0.07 0.07 0.07
0.01 0.00 0.01 0.01 0.01 0.00 0.00 0.01 0.02 0.03 0.03 0.04 0.05 0.05 0.04 0.05 0.04 0.04 0.05 0.05 0.06 0.05 0.05 0.05 0.05 0.05 0.05 0.05 0.06 0.07 0.08 0.09 0.09 0.08 0.07 0.05 0.07 0.07 0.05 0.04 0.04 0.05 0.07
0.02 0.01 0.01 0.01 0.01 0.01 0.00 0.01 0.01 0.02 0.03 0.03 0.04 0.05 0.06 0.06 0.05 0.04 0.03 0.04 0.04 0.04 0.04 0.05 0.05 0.06 0.05 0.04 0.05 0.07 0.08 0.09 0.09 0.09 0.09 0.09 0.08 0.07 0.06 0.05 0.04 0.04 0.04
0.02 0.01 0.01 0.01 0.01 0.01 0.01 0.01 0.02 0.03 0.03 0.03 0.03 0.04 0.05 0.06 0.07 0.08 0.07 0.05 0.03 0.03 0.03 0.03 0.03 0.03 0.04 0.05 0.04 0.04 0.06 0.06 0.06 0.07 0.07 0.07 0.09 0.10 0.09 0.08 0.06 0.06 0.05
0.01 0.00 0.01 0.01 0.01 0.02 0.02 0.03 0.03 0.03 0.04 0.04 0.04 0.04 0.04 0.05 0.06 0.08 0.08 0.07 0.05 0.04 0.04 0.03 0.02 0.02 0.02 0.03 0.03 0.04 0.04 0.04 0.04 0.05 0.06 0.06 0.07 0.09 0.08 0.07 0.06 0.06 0.05
0.00 0.01 0.01 0.01 0.01 0.02 0.02 0.03 0.03 0.03 0.04 0.04 0.04 0.04 0.04 0.04 0.05 0.06 0.06 0.07 0.05 0.04 0.04 0.04 0.03 0.02 0.02 0.03 0.03 0.04 0.05 0.05 0.06 0.07 0.07 0.08 0.08 0.07 0.07 0.06 0.06 0.05 0.03
0.01 0.01 0.01 0.01 0.01 0.03 0.03 0.03 0.04 0.04 0.03 0.03 0.03 0.04 0.05 0.04 0.03 0.03 0.04 0.05 0.05 0.03 0.03 0.03 0.03 0.02 0.03 0.03 0.04 0.05 0.06 0.07 0.07 0.07 0.08 0.07 0.07 0.05 0.05 0.05 0.04 0.03 0.03
0.02 0.01 0.01 0.02 0.03 0.04 0.04 0.06 0.07 0.07 0.06 0.05 0.06 0.05 0.04 0.02 0.02 0.02 0.03 0.04 0.04 0.04 0.03 0.04 0.04 0.03 0.04 0.04 0.07 0.08 0.08 0.08 0.07 0.05 0.04 0.03 0.03 0.03 0.03 0.03 0.03 0.03 0.03
0.02 0.03 0.05 0.05 0.04 0.05 0.08 0.11 0.11 0.08 0.05 0.04 0.03 0.03 0.03 0.02 0.03 0.04 0.05 0.05 0.06 0.06 0.04 0.03 0.03 0.03 0.03 0.03 0.04 0.05 0.05 0.04 0.04 0.04 0.03 0.03 0.03 0.02 0.02 0.02 0.03 0.03 0.02
0.02 0.03 0.05 0.04 0.04 0.07 0.10 0.12 0.10 0.08 0.07 0.07 0.06 0.06 0.05 0.05 0.06 0.08 0.08 0.07 0.08 0.07 0.05 0.04 0.03 0.02 0.02 0.02 0.01 0.02 0.03 0.03 0.02 0.02 0.02 0.02 0.02 0.02 0.02 0.01 0.02 0.02 0.02
0.02 0.02 0.03 0.04 0.06 0.10 0.15 0.15 0.15 0.15 0.15 0.11 0.09 0.07 0.07 0.07 0.08 0.10 0.11 0.09 0.09 0.09 0.08 0.07 0.05 0.03 0.02 0.02 0.02 0.02 0.03 0.03 0.02 0.01 0.01 0.01 0.02 0.02 0.02 0.02 0.02 0.02 0.02
0.03 0.04 0.05 0.08 0.10 0.12 0.14 0.17 0.17 0.14 0.12 0.10 0.09 0.07 0.07 0.09 0.10 0.11 0.12 0.11 0.11 0.10 0.10 0.08 0.08 0.08 0.07 0.05 0.04 0.03 0.03 0.03 0.03 0.02 0.02 0.02 0.02 0.02 0.01 0.01 0.01 0.01 0.01
0.06 0.07 0.09 0.13 0.16 0.16 0.13 0.10 0.09 0.08 0.06 0.05 0.04 0.04 0.04 0.06 0.07 0.07 0.07 0.08 0.08 0.08 0.08 0.09 0.09 0.09 0.09 0.08 0.07 0.06 0.05 0.04 0.03 0.03 0.02 0.02 0.02 0.02 0.02 0.01 0.01 0.01 0.01
0.08 0.07 0.07 0.09 0.09 0.09 0.09 0.06 0.05 0.06 0.06 0.05 0.05 0.04 0.05 0.06 0.06 0.05 0.05 0.05 0.06 0.05 0.05 0.05 0.05 0.05 0.04 0.04 0.04 0.04 0.03 0.03 0.02 0.02 0.02 0.01 0.01 0.01 0.01 0.01 0.02 0.02 0.02
0.06 0.05 0.05 0.05 0.06 0.07 0.07 0.07 0.05 0.05 0.05 0.05 0.05 0.05 0.04 0.04 0.05 0.04 0.03 0.04 0.04 0.03 0.03 0.03 0.04 0.04 0.04 0.04 0.04 0.03 0.03 0.02 0.02 0.02 0.01 0.01 0.01 0.01 0.01 0.01 0.02 0.02 0.02
0.06 0.05 0.04 0.05 0.06 0.07 0.07 0.07 0.06 0.07 0.10 0.10 0.08 0.06 0.05 0.04 0.04 0.03 0.04 0.04 0.05 0.05 0.05 0.04 0.04 0.03 0.03 0.03 0.03 0.03 0.03 0.03 0.02 0.02 0.02 0.02 0.02 0.01 0.01 0.01 0.01 0.02 0.02
0.05 0.05 0.05 0.05 0.06 0.06 0.07 0.07 0.08 0.09 0.11 0.13 0.14 0.11 0.09 0.08 0.06 0.05 0.05 0.06 0.06 0.06 0.04 0.04 0.04 0.03 0.04 0.04 0.04 0.03 0.03 0.03 0.03 0.02 0.02 0.02 0.02 0.02 0.02 0.02 0.02 0.02 0.02
0.07 0.07 0.07 0.07 0.07 0.08 0.09 0.09 0.08 0.07 0.07 0.08 0.09 0.11 0.13 0.13 0.14 0.15 0.16 0.16 0.14 0.12 0.08 0.08 0.08 0.07 0.05 0.05 0.04 0.04 0.04 0.04 0.04 0.04 0.04 0.04 0.05 0.05 0.04 0.03 0.03 0.02 0.02
0.09 0.09 0.10 0.10 0.08 0.08 0.06 0.07 0.07 0.06 0.06 0.06 0.07 0.08 0.09 0.09 0.10 0.12 0.15 0.16 0.15 0.14 0.12 0.11 0.10 0.09 0.07 0.06 0.05 0.04 0.04 0.04 0.04 0.04 0.04 0.04 0.04 0.04 0.04 0.03 0.03 0.02 0.02
0.09 0.07 0.06 0.07 0.08 0.08 0.07 0.05 0.04 0.04 0.04 0.05 0.06 0.06 0.06 0.06 0.06 0.08 0.10 0.11 0.12 0.12 0.10 0.09 0.08 0.07 0.06 0.05 0.04 0.03 0.03 0.03 0.03 0.03 0.03 0.03 0.03 0.04 0.04 0.03 0.03 0.02 0.02
0.05 0.04 0.03 0.03 0.03 0.04 0.04 0.04 0.03 0.03 0.03 0.03 0.03 0.03 0.04 0.04 0.04 0.05 0.05 0.06 0.07 0.08 0.08 0.08 0.07 0.06 0.06 0.05 0.04 0.04 0.03 0.03 0.03 0.03 0.03 0.04 0.04 0.05 0.05 0.05 0.04 0.04 0.04
0.03 0.02 0.02 0.02 0.02 0.03 0.03 0.03 0.02 0.02 0.02 0.02 0.02 0.02 0.02 0.02 0.02 0.03 0.03 0.04 0.04 0.05 0.06 0.07 0.07 0.06 0.05 0.05 0.04 0.03 0.03 0.03 0.03 0.03 0.04 0.05 0.05 0.05 0.06 0.07 0.07 0.07 0.06
0.03 0.03 0.02 0.02 0.02 0.03 0.03 0.03 0.02 0.02 0.02 0.02 0.02 0.02 0.02 0.02 0.02 0.02 0.02 0.03 0.03 0.03 0.04 0.05 0.04 0.04 0.03 0.03 0.03 0.02 0.02 0.03 0.03 0.03 0.04 0.04 0.04 0.04 0.05 0.06 0.06 0.06 0.06
0.03 0.03 0.03 0.02 0.03 0.03 0.04 0.04 0.03 0.03 0.02 0.02 0.02 0.03 0.03 0.02 0.02 0.02 0.02 0.02 0.02 0.02 0.02 0.03 0.03 0.03 0.03 0.03 0.03 0.02 0.02 0.03 0.02 0.02 0.02 0.03 0.03 0.04 0.05 0.05 0.05 0.04 0.05
0.05 0.04 0.03 0.04 0.04 0.04 0.04 0.04 0.04 0.03 0.03 0.03 0.02 0.03 0.03 0.03 0.03 0.02 0.03 0.03 0.03 0.03 0.03 0.03 0.03 0.03 0.03 0.03 0.03 0.02 0.03 0.03 0.03 0.02 0.03 0.03 0.04 0.05 0.06 0.07 0.08 0.08 0.08
0.08 0.06 0.05 0.04 0.03 0.04 0.05 0.05 0.05 0.04 0.04 0.04 0.04 0.04 0.04 0.05 0.04 0.03 0.03 0.02 0.03 0.03 0.03 0.03 0.02 0.02 0.02 0.02 0.02 0.02 0.03 0.02 0.03 0.04 0.04 0.05 0.06 0.07 0.08 0.07 0.07 0.06 0.06
MSLP
1010.03 1010.56 1011.04 1011.41 1011.67 1011.81 1011.86 1011.84 1011.80 1011.77 1011.79 1011.88 1012.02 1012.21 1012.41 1012.61 1012.79 1012.94 1013.09 1013.25 1013.46 1013.73 1014.09 1014.52 1015.01 1015.52 1016.01 1016.43 1016.76 1016.96 1017.05 1017.05 1017.00 1016.94 1016.91 1016.94 1017.06 1017.25 1017.49 1017.77 1018.06 1018.32 1018.53
1009.70 1010.26 1010.77 1011.19 1011.48 1011.65 1011.71 1011.70 1011.66 1011.63 1011.63 1011.69 1011.80 1011.96 1012.13 1012.31 1012.48 1012.63 1012.78 1012.95 1013.17 1013.47 1013.85 1014.30 1014.82 1015.36 1015.88 1016.34 1016.71 1016.96 1017.10 1017.15 1017.14 1017.10 1017.09 1017.11 1017.21 1017.36 1017.56 1017.79 1018.02 1018.23 1018.41
1009.41 1010.01 1010.56 1011.02 1011.37 1011.58 1011.69 1011.71 1011.69 1011.66 1011.66 1011.70 1011.80 1011.93 1012.08 1012.24 1012.40 1012.54 1012.69 1012.86 1013.08 1013.37 1013.73 1014.17 1014.67 1015.20 1015.71 1016.18 1016.56 1016.84 1017.02 1017.11 1017.14 1017.14 1017.15 1017.19 1017.27 1017.40 1017.55 1017.72 1017.88 1018.03 1018.15
1009.09 1009.73 1010.34 1010.86 1011.28 1011.56 1011.73 1011.81 1011.84 1011.84 1011.86 1011.91 1011.99 1012.11 1012.25 1012.40 1012.54 1012.67 1012.81 1012.96 1013.15 1013.40 1013.72 1014.11 1014.55 1015.02 1015.49 1015.92 1016.29 1016.58 1016.79 1016.93 1017.01 1017.07 1017.13 1017.19 1017.28 1017.38 1017.50 1017.61 1017.71 1017.78 1017.84
1008.70 1009.38 1010.05 1010.64 1011.14 1011.51 1011.77 1011.93 1012.03 1012.09 1012.14 1012.21 1012.31 1012.43 1012.56 1012.70 1012.83 1012.94 1013.06 1013.18 1013.33 1013.53 1013.77 1014.08 1014.44 1014.82 1015.22 1015.60 1015.93 1016.22 1016.45 1016.64 1016.78 1016.91 1017.02 1017.14 1017.25 1017.36 1017.45 1017.52 1017.56 1017.56 1017.54
1008.21 1008.93 1009.64 1010.31 1010.89 1011.36 1011.72 1011.97 1012.15 1012.28 1012.39 1012.50 1012.62 1012.75 1012.89 1013.02 1013.14 1013.25 1013.34 1013.43 1013.53 1013.66 1013.84 1014.05 1014.31 1014.61 1014.91 1015.22 1015.52 1015.80 1016.05 1016.28 1016.49 1016.69 1016.88 1017.06 1017.22 1017.35 1017.44 1017.48 1017.47 1017.42 1017.33
1007.63 1008.37 1009.12 1009.85 1010.51 1011.06 1011.51 1011.86 1012.13 1012.33 1012.51 1012.66 1012.81 1012.96 1013.11 1013.24 1013.36 1013.46 1013.54 1013.61 1013.68 1013.77 1013.87 1014.01 1014.19 1014.39 1014.62 1014.87 1015.13 1015.39 1015.66 1015.92 1016.20 1016.47 1016.73 1016.98 1017.19 1017.36 1017.47 1017.50 1017.47 1017.37 1017.24
1007.01 1007.74 1008.51 1009.27 1009.99 1010.61 1011.14 1011.57 1011.91 1012.19 1012.41 1012.61 1012.79 1012.96 1013.13 1013.28 1013.41 1013.52 1013.61 1013.68 1013.75 1013.81 1013.89 1013.98 1014.09 1014.24 1014.41 1014.61 1014.83 1015.08 1015.35 1015.64 1015.96 1016.29 1016.61 1016.92 1017.19 1017.39 1017.53 1017.58 1017.54 1017.43 1017.26
1006.43 1007.12 1007.88 1008.65 1009.39 1010.05 1010.64 1011.12 1011.52 1011.84 1012.11 1012.35 1012.55 1012.75 1012.94 1013.11 1013.27 1013.42 1013.54 1013.65 1013.74 1013.82 1013.91 1013.99 1014.09 1014.21 1014.34 1014.51 1014.70 1014.93 1015.19 1015.49 1015.82 1016.17 1016.53 1016.88 1017.18 1017.42 1017.59 1017.66 1017.64 1017.53 1017.36
1005.93 1006.57 1007.29 1008.04 1008.78 1009.46 1010.07 1010.58 1011.01 1011.37 1011.67 1011.93 1012.17 1012.39 1012.60 1012.81 1013.02 1013.21 1013.40 1013.57 1013.72 1013.86 1013.99 1014.11 1014.22 1014.34 1014.47 1014.61 1014.78 1014.98 1015.21 1015.49 1015.80 1016.14 1016.49 1016.84 1017.15 1017.41 1017.60 1017.70 1017.70 1017.63 1017.48
1005.57 1006.15 1006.81 1007.53 1008.24 1008.91 1009.52 1010.05 1010.49 1010.87 1011.19 1011.47 1011.73 1011.98 1012.23 1012.48 1012.74 1013.01 1013.26 1013.51 1013.75 1013.97 1014.17 1014.35 1014.51 1014.65 1014.79 1014.92 1015.06 1015.21 1015.40 1015.62 1015.88 1016.17 1016.47 1016.79 1017.08 1017.33 1017.53 1017.65 1017.69 1017.65 1017.55
1005.36 1005.86 1006.47 1007.14 1007.82 1008.47 1009.07 1009.60 1010.05 1010.45 1010.78 1011.08 1011.37 1011.64 1011.93 1012.23 1012.55 1012.88 1013.21 1013.55 1013.88 1014.19 1014.47 1014.72 1014.93 1015.10 1015.25 1015.37 1015.47 1015.57 1015.69 1015.84 1016.01 1016.21 1016.44 1016.69 1016.93 1017.16 1017.35 1017.49 1017.56 1017.57 1017.52
1005.26 1005.71 1006.27 1006.90 1007.54 1008.17 1008.76 1009.29 1009.75 1010.16 1010.52 1010.84 1011.15 1011.46 1011.78 1012.12 1012.49 1012.88 1013.28 1013.69 1014.10 1014.48 1014.83 1015.14 1015.40 1015.60 1015.75 1015.85 1015.92 1015.97 1016.01 1016.06 1016.13 1016.23 1016.37 1016.53 1016.71 1016.89 1017.06 1017.20 1017.31 1017.36 1017.36
1005.24 1005.66 1006.19 1006.78 1007.41 1008.02 1008.60 1009.13 1009.61 1010.04 1010.41 1010.76 1011.10 1011.44 1011.79 1012.17 1012.57 1013.00 1013.44 1013.89 1014.35 1014.77 1015.17 1015.51 1015.80 1016.02 1016.17 1016.25 1016.28 1016.28 1016.25 1016.21 1016.19 1016.20 1016.24 1016.31 1016.42 1016.55 1016.69 1016.83 1016.95 1017.04 1017.10
1005.27 1005.67 1006.18 1006.76 1007.37 1007.98 1008.56 1009.10 1009.59 1010.04 1010.45 1010.82 1011.18 1011.54 1011.92 1012.31 1012.72 1013.16 1013.61 1014.07 1014.53 1014.97 1015.37 1015.73 1016.02 1016.24 1016.39 1016.46 1016.47 1016.43 1016.35 1016.25 1016.16 1016.09 1016.05 1016.05 1016.09 1016.17 1016.28 1016.41 1016.54 1016.66 1016.75
1005.32 1005.72 1006.22 1006.79 1007.39 1007.99 1008.58 1009.13 1009.64 1010.11 1010.54 1010.94 1011.32 1011.69 1012.06 1012.45 1012.85 1013.26 1013.69 1014.13 1014.56 1014.97 1015.35 1015.69 1015.98 1016.19 1016.34 1016.41 1016.42 1016.37 1016.27 1016.15 1016.03 1015.91 1015.83 1015.78 1015.78 1015.82 1015.90 1016.01 1016.13 1016.25 1016.36
1005.39 1005.79 1006.28 1006.84 1007.42 1008.02 1008.60 1009.16 1009.68 1010.16 1010.60 1011.01 1011.40 1011.77 1012.14 1012.50 1012.86 1013.24 1013.61 1013.99 1014.37 1014.74 1015.08 1015.40 1015.66 1015.88 1016.04 1016.13 1016.16 1016.13 1016.05 1015.95 1015.83 1015.72 1015.62 1015.56 1015.53 1015.54 1015.59 1015.67 1015.78 1015.89 1015.99
1005.49 1005.88 1006.36 1006.89 1007.45 1008.02 1008.58 1009.13 1009.65 1010.13 1010.58 1010.99 1011.38 1011.74 1012.08 1012.40 1012.72 1013.04 1013.35 1013.67 1013.99 1014.30 1014.61 1014.89 1015.15 1015.37 1015.55 1015.68 1015.76 1015.79 1015.77 1015.71 1015.64 1015.55 1015.47 1015.41 1015.37 1015.37 1015.39 1015.44 1015.52 1015.60 1015.68
1005.63 1006.00 1006.43 1006.92 1007.44 1007.98 1008.51 1009.03 1009.53 1010.00 1010.44 1010.84 1011.21 1011.55 1011.87 1012.16 1012.43 1012.69 1012.95 1013.21 1013.48 1013.75 1014.02 1014.30 1014.56 1014.80 1015.02 1015.21 1015.35 1015.45 1015.50 1015.52 1015.50 1015.46 1015.41 1015.37 1015.33 1015.30 1015.30 1015.31 1015.34 1015.38 1015.42
1005.80 1006.12 1006.51 1006.94 1007.40 1007.88 1008.37 1008.85 1009.32 1009.77 1010.19 1010.58 1010.93 1011.25 1011.54 1011.80 1012.05 1012.27 1012.50 1012.72 1012.96 1013.21 1013.48 1013.75 1014.03 1014.31 1014.58 1014.82 1015.04 1015.21 1015.33 1015.42 1015.46 1015.47 1015.45 1015.41 1015.37 1015.33 1015.29 1015.26 1015.24 1015.23 1015.21
1005.97 1006.23 1006.55 1006.91 1007.31 1007.73 1008.17 1008.61 1009.05 1009.47 1009.87 1010.24 1010.58 1010.89 1011.17 1011.42 1011.65 1011.87 1012.08 1012.30 1012.54 1012.80 1013.08 1013.38 1013.70 1014.02 1014.34 1014.64 1014.91 1015.14 1015.32 1015.45 1015.53 1015.57 1015.57 1015.53 1015.47 1015.40 1015.33 1015.25 1015.18 1015.11 1015.05
1006.09 1006.29 1006.53 1006.83 1007.16 1007.53 1007.92 1008.33 1008.73 1009.13 1009.51 1009.88 1010.21 1010.53 1010.81 1011.06 1011.31 1011.54 1011.78 1012.03 1012.30 1012.59 1012.92 1013.26 1013.62 1013.99 1014.35 1014.69 1015.00 1015.26 1015.47 1015.61 1015.70 1015.74 1015.73 1015.67 1015.59 1015.48 1015.36 1015.24 1015.12 1015.01 1014.90
1006.11 1006.24 1006.42 1006.66 1006.95 1007.28 1007.63 1008.01 1008.40 1008.78 1009.16 1009.52 1009.87 1010.19 1010.49 1010.78 1011.05 1011.33 1011.62 1011.92 1012.25 1012.60 1012.98 1013.38 1013.79 1014.20 1014.59 1014.95 1015.27 1015.53 1015.73 1015.87 1015.93 1015.94 1015.89 1015.80 1015.67 1015.53 1015.37 1015.21 1015.05 1014.91 1014.77
1005.98 1006.06 1006.20 1006.41 1006.66 1006.97 1007.31 1007.67 1008.05 1008.44 1008.82 1009.19 1009.55 1009.89 1010.22 1010.55 1010.88 1011.21 1011.56 1011.93 1012.33 1012.75 1013.20 1013.65 1014.11 1014.55 1014.97 1015.33 1015.64 1015.88 1016.05 1016.14 1016.17 1016.12 1016.03 1015.89 1015.72 1015.54 1015.35 1015.16 1014.98 1014.82 1014.68
1005.71 1005.76 1005.89 1006.08 1006.33 1006.63 1006.97 1007.34 1007.72 1008.11 1008.50 1008.88 1009.25 1009.62 1009.98 1010.34 1010.72 1011.11 1011.53 1011.97 1012.44 1012.94 1013.45 1013.96 1014.46 1014.93 1015.36 1015.72 1016.01 1016.22 1016.35 1016.40 1016.37 1016.27 1016.13 1015.94 1015.74 1015.53 1015.32 1015.12 1014.94 1014.79 1014.65
1005.34 1005.39 1005.52 1005.72 1005.98 1006.29 1006.64 1007.02 1007.41 1007.81 1008.20 1008.58 1008.96 1009.34 1009.72 1010.12 1010.53 1010.97 1011.45 1011.95 1012.49 1013.05 1013.62 1014.19 1014.73 1015.23 1015.67 1016.03 1016.31 1016.49 1016.59 1016.59 1016.52 1016.39 1016.21 1016.00 1015.77 1015.54 1015.33 1015.13 1014.96 1014.82 1014.71
Thickness
5804 5799 5796 5792 5788 5784 5781 5778 5776 5773 5769 5766 5763 5760 5758 5756 5754 5751 5750 5749 5747 5745 5745 5744 5742 5741 5741 5740 5740 5738 5735 5731 5726 5726 5725 5722 5718 5715 5713 5710 5708 5706 5704
5805 5800 5796 5792 5788 5784 5781 5778 5776 5772 5769 5766 5763 5760 5757 5755 5753 5751 5749 5748 5745 5743 5742 5741 5740 5740 5737 5737 5735 5734 5732 5729 5725 5720 5719 5716 5712 5709 5707 5704 5703 5702 5699
5805 5800 5795 5792 5787 5783 5781 5778 5775 5771 5768 5766 5763 5759 5756 5753 5750 5749 5747 5746 5744 5742 5741 5739 5737 5736 5734 5733 5731 5730 5729 5727 5723 5719 5715 5711 5707 5704 5700 5698 5697 5694 5693
5803 5798 5793 5790 5787 5783 5781 5778 5775 5771 5766 5763 5761 5759 5756 5753 5749 5746 5744 5742 5741 5739 5737 5736 5734 5733 5731 5729 5728 5726 5724 5722 5719 5716 5711 5707 5703 5699 5695 5692 5690 5687 5686
5799 5795 5791 5788 5785 5782 5779 5776 5773 5769 5767 5762 5759 5756 5754 5752 5749 5745 5741 5740 5737 5735 5734 5733 5731 5729 5726 5724 5725 5723 5720 5718 5716 5712 5708 5704 5699 5694 5691 5688 5685 5682 5680
5794 5791 5789 5785 5782 5778 5775 5773 5770 5766 5763 5759 5755 5753 5751 5750 5745 5740 5738 5737 5734 5731 5729 5729 5728 5724 5721 5718 5716 5714 5713 5712 5710 5707 5704 5699 5695 5692 5688 5684 5681 5678 5675
5788 5786 5784 5781 5778 5775 5773 5770 5766 5762 5758 5754 5751 5748 5746 5742 5737 5733 5731 5732 5731 5727 5725 5724 5725 5724 5719 5717 5712 5708 5706 5703 5701 5700 5698 5695 5691 5688 5683 5679 5675 5673 5669
5782 5780 5779 5776 5774 5771 5768 5764 5761 5758 5754 5749 5745 5743 5740 5737 5731 5728 5726 5727 5727 5723 5721 5720 5718 5716 5714 5711 5709 5706 5703 5700 5696 5694 5692 5689 5686 5682 5677 5674 5670 5665 5661
5777 5774 5773 5771 5767 5763 5759 5757 5755 5752 5748 5744 5740 5736 5734 5731 5725 5722 5719 5722 5720 5718 5717 5715 5713 5710 5705 5701 5701 5699 5696 5693 5688 5684 5681 5679 5675 5672 5669 5667 5663 5660 5657
5770 5769 5768 5765 5760 5756 5754 5751 5748 5745 5741 5738 5735 5731 5729 5726 5720 5718 5714 5717 5715 5713 5711 5709 5704 5702 5697 5693 5694 5692 5688 5686 5684 5679 5674 5671 5668 5664 5660 5659 5658 5655 5653
5763 5761 5760 5757 5753 5750 5748 5744 5740 5737 5733 5730 5727 5725 5724 5721 5715 5711 5708 5711 5710 5707 5706 5703 5700 5692 5688 5685 5683 5684 5680 5677 5676 5674 5671 5667 5664 5659 5655 5651 5649 5647 5645
5752 5751 5750 5747 5746 5744 5739 5736 5734 5729 5724 5722 5718 5717 5718 5714 5710 5705 5702 5701 5701 5701 5698 5696 5692 5684 5680 5676 5675 5673 5669 5667 5669 5667 5664 5661 5657 5653 5649 5645 5640 5637 5634
5742 5740 5739 5738 5737 5735 5732 5728 5725 5723 5719 5716 5713 5712 5712 5710 5705 5700 5696 5694 5692 5692 5691 5685 5680 5674 5671 5669 5665 5662 5661 5662 5661 5659 5656 5653 5650 5646 5641 5636 5632 5628 5625
5731 5730 5730 5728 5727 5725 5723 5721 5718 5715 5712 5709 5707 5706 5705 5703 5700 5696 5693 5689 5684 5682 5680 5674 5668 5664 5663 5661 5658 5655 5654 5655 5653 5651 5648 5645 5642 5637 5632 5629 5625 5621 5618
5719 5719 5719 5719 5717 5713 5711 5708 5706 5702 5700 5698 5699 5698 5696 5694 5689 5684 5684 5683 5680 5676 5671 5666 5662 5659 5656 5654 5652 5649 5647 5645 5642 5640 5637 5634 5631 5628 5623 5619 5616 5614 5611
5707 5708 5708 5708 5706 5703 5700 5695 5690 5688 5684 5681 5680 5681 5682 5678 5674 5672 5670 5668 5665 5661 5659 5658 5654 5651 5649 5647 5643 5640 5637 5634 5631 5628 5626 5624 5621 5618 5614 5611 5607 5604 5601
5695 5696 5698 5697 5696 5693 5691 5688 5683 5676 5671 5668 5667 5666 5665 5663 5661 5660 5658 5655 5651 5648 5649 5648 5645 5641 5639 5637 5634 5630 5627 5623 5619 5617 5614 5612 5609 5606 5602 5599 5596 5593 5590
5685 5685 5685 5685 5684 5682 5680 5678 5675 5673 5668 5663 5657 5653 5651 5649 5647 5646 5644 5643 5641 5639 5640 5638 5633 5630 5628 5625 5622 5619 5616 5613 5609 5605 5602 5600 5597 5594 5590 5587 5584 5580 5578
5674 5674 5673 5673 5671 5669 5667 5666 5664 5662 5660 5657 5652 5646 5640 5638 5636 5634 5633 5635 5633 5630 5628 5624 5621 5617 5614 5612 5609 5606 5604 5601 5597 5594 5590 5586 5584 5581 5578 5575 5572 5566 5565
5659 5657 5658 5659 5657 5656 5656 5654 5652 5651 5650 5647 5643 5639 5634 5631 5630 5626 5623 5623 5621 5618 5614 5611 5608 5604 5601 5598 5596 5593 5591 5587 5583 5580 5577 5574 5572 5569 5566 5563 5561 5558 5556
5648 5647 5644 5645 5644 5644 5645 5643 5641 5640 5638 5635 5631 5626 5620 5622 5620 5616 5613 5610 5608 5605 5601 5597 5594 5591 5587 5584 5581 5579 5576 5574 5570 5568 5565 5562 5559 5557 5554 5552 5550 5548 5546
5637 5638 5636 5633 5632 5630 5630 5629 5628 5627 5625 5623 5619 5614 5606 5608 5607 5604 5601 5598 5594 5590 5587 5583 5580 5576 5572 5569 5566 5564 5563 5560 5557 5554 5551 5549 5547 5545 5543 5541 5539 5537 5535
5625 5624 5622 5621 5619 5615 5617 5617 5616 5614 5612 5609 5606 5602 5597 5595 5592 5589 5587 5583 5579 5576 5573 5569 5566 5562 5559 5556 5553 5550 5548 5545 5542 5540 5538 5538 5537 5535 5533 5531 5529 5527 5525
5614 5613 5611 5609 5608 5607 5606 5605 5603 5600 5598 5595 5591 5588 5585 5581 5579 5576 5574 5570 5567 5563 5559 5556 5552 5549 5545 5542 5539 5535 5530 5527 5525 5526 5525 5525 5525 5524 5523 5521 5519 5517 5514
5603 5602 5600 5598 5596 5594 5592 5591 5589 5587 5585 5582 5579 5576 5573 5570 5567 5563 5560 5557 5554 5550 5546 5543 5539 5536 5532 5528 5524 5519 5515 5513 5511 5510 5511 5513 5513 5511 5510 5509 5507 5505 5502
5592 5591 5589 5587 5584 5583 5581 5579 5577 5575 5572 5570 5568 5565 5561 5558 5555 5552 5549 5546 5542 5538 5534 5530 5526 5522 5518 5514 5509 5504 5502 5501 5499 5498 5498 5500 5500 5499 5497 5497 5495 5494 5492